When you browse on this site, cookies collect data to enhance your experience and personalize the content and advertising you see.
Visit our Privacy Policy to learn more. By continuing to use the site, you agree to this use of cookies and data.

Tiempo cada hora Luanda

Hoy, 12 Agosto, Miércoles

Tiempo Temperatura Precipitaciones Viento Presión Humedad
00:00 +22°C° 0 mm 4 mps 756 mmHg 83%
01:00 +22°C° 0 mm 3 mps 756 mmHg 81%
02:00 +22°C° 0 mm 3 mps 755 mmHg 80%
03:00 +22°C° 0 mm 3 mps 755 mmHg 80%
04:00 +23°C° 0 mm 2 mps 755 mmHg 79%
05:00 +23°C° 0 mm 2 mps 755 mmHg 78%
06:00 +24°C° 0 mm 2 mps 755 mmHg 77%
07:00 +24°C° 0 mm 2 mps 756 mmHg 76%
08:00 +25°C° 0 mm 1 mps 756 mmHg 72%
09:00 +26°C° 0 mm 1 mps 756 mmHg 67%
10:00 +27°C° 0 mm 1 mps 756 mmHg 63%
11:00 +28°C° 0 mm 2 mps 755 mmHg 58%
12:00 +30°C° 0 mm 3 mps 755 mmHg 53%
13:00 +32°C° 0 mm 5 mps 754 mmHg 48%
14:00 +30°C° 0 mm 5 mps 753 mmHg 52%
15:00 +29°C° 0 mm 5 mps 753 mmHg 55%
16:00 +28°C° 0 mm 5 mps 753 mmHg 58%
17:00 +27°C° 0 mm 5 mps 753 mmHg 65%
18:00 +25°C° 0 mm 5 mps 754 mmHg 73%
19:00 +22°C° 0 mm 6 mps 754 mmHg 81%
20:00 +22°C° 0 mm 5 mps 755 mmHg 83%
21:00 +22°C° 0 mm 3 mps 755 mmHg 85%
22:00 +23°C° 0 mm 2 mps 756 mmHg 87%
23:00 +23°C° 0 mm 2 mps 756 mmHg 84%

Mañana, 13 Agosto, Jueves

Tiempo Temperatura Precipitaciones Viento Presión Humedad
00:00 +23°C° 0 mm 2 mps 756 mmHg 80%
01:00 +24°C° 0 mm 2 mps 756 mmHg 76%
02:00 +24°C° 0 mm 1 mps 755 mmHg 75%
03:00 +24°C° 0 mm 1 mps 755 mmHg 74%
04:00 +24°C° 0 mm 1 mps 755 mmHg 72%
05:00 +24°C° 0 mm 1 mps 755 mmHg 73%
06:00 +24°C° 0 mm 1 mps 755 mmHg 74%
07:00 +23°C° 0 mm 1 mps 755 mmHg 74%
08:00 +25°C° 0 mm 1 mps 755 mmHg 66%
09:00 +27°C° 0 mm 2 mps 755 mmHg 58%
10:00 +29°C° 0 mm 2 mps 756 mmHg 50%
11:00 +29°C° 0 mm 3 mps 755 mmHg 49%
12:00 +30°C° 0 mm 4 mps 754 mmHg 47%
13:00 +32°C° 0 mm 5 mps 753 mmHg 46%
14:00 +30°C° 0 mm 5 mps 753 mmHg 51%
15:00 +28°C° 0 mm 6 mps 752 mmHg 56%
16:00 +27°C° 0 mm 6 mps 752 mmHg 61%
17:00 +26°C° 0 mm 6 mps 752 mmHg 68%
18:00 +24°C° 0 mm 6 mps 753 mmHg 76%
19:00 +22°C° 0 mm 5 mps 753 mmHg 83%
20:00 +22°C° 0 mm 4 mps 754 mmHg 85%
21:00 +21°C° 0 mm 3 mps 754 mmHg 86%
22:00 +21°C° 0 mm 2 mps 755 mmHg 88%
23:00 +23°C° 0 mm 2 mps 755 mmHg 84%

Pasado mañana, 14 Agosto, Viernes

Tiempo Temperatura Precipitaciones Viento Presión Humedad
00:00 +23°C° 0 mm 1 mps 755 mmHg 81%
01:00 +23°C° 0 mm 1 mps 755 mmHg 77%
02:00 +23°C° 0 mm 1 mps 754 mmHg 77%
03:00 +23°C° 0 mm 1 mps 754 mmHg 76%
04:00 +23°C° 0 mm 1 mps 754 mmHg 76%
05:00 +23°C° 0 mm 1 mps 754 mmHg 75%
06:00 +23°C° 0 mm 1 mps 754 mmHg 74%
07:00 +23°C° 0 mm 1 mps 755 mmHg 73%
08:00 +24°C° 0 mm 1 mps 755 mmHg 68%
09:00 +25°C° 0 mm 1 mps 755 mmHg 63%
10:00 +26°C° 0 mm 1 mps 755 mmHg 58%
11:00 +27°C° 0 mm 2 mps 754 mmHg 54%
12:00 +29°C° 0 mm 3 mps 753 mmHg 51%
13:00 +30°C° 0 mm 4 mps 752 mmHg 47%
14:00 +29°C° 0 mm 5 mps 752 mmHg 51%
15:00 +28°C° 0 mm 6 mps 751 mmHg 54%
16:00 +27°C° 0 mm 6 mps 751 mmHg 58%
17:00 +24°C° 0 mm 6 mps 751 mmHg 65%
18:00 +23°C° 0 mm 6 mps 751 mmHg 72%
19:00 +22°C° 0 mm 5 mps 752 mmHg 80%
20:00 +21°C° 0 mm 4 mps 753 mmHg 82%
21:00 +21°C° 0 mm 3 mps 753 mmHg 84%
22:00 +21°C° 0 mm 2 mps 754 mmHg 85%
23:00 +21°C° 0 mm 2 mps 754 mmHg 82%

15 Agosto, Sábado

Tiempo Temperatura Precipitaciones Viento Presión Humedad
00:00 +23°C° 0 mm 2 mps 754 mmHg 78%
01:00 +23°C° 0 mm 2 mps 754 mmHg 74%
02:00 +23°C° 0 mm 2 mps 754 mmHg 74%
03:00 +23°C° 0 mm 1 mps 754 mmHg 73%
04:00 +23°C° 0 mm 1 mps 753 mmHg 73%
05:00 +23°C° 0 mm 1 mps 754 mmHg 71%
06:00 +23°C° 0 mm 1 mps 754 mmHg 70%
07:00 +23°C° 0 mm 1 mps 754 mmHg 68%
08:00 +25°C° 0 mm 1 mps 754 mmHg 62%
09:00 +26°C° 0 mm 1 mps 754 mmHg 56%
10:00 +28°C° 0 mm 2 mps 754 mmHg 50%
11:00 +28°C° 0 mm 3 mps 753 mmHg 49%
12:00 +29°C° 0 mm 4 mps 752 mmHg 48%
13:00 +29°C° 0 mm 5 mps 752 mmHg 47%
14:00 +28°C° 0 mm 5 mps 751 mmHg 50%
15:00 +28°C° 0 mm 5 mps 751 mmHg 52%
16:00 +27°C° 0 mm 6 mps 750 mmHg 55%
17:00 +25°C° 0 mm 5 mps 751 mmHg 62%
18:00 +23°C° 0 mm 5 mps 751 mmHg 69%
19:00 +22°C° 0 mm 4 mps 752 mmHg 76%
20:00 +21°C° 0 mm 4 mps 752 mmHg 79%
21:00 +21°C° 0 mm 3 mps 753 mmHg 82%
22:00 +21°C° 0 mm 3 mps 753 mmHg 84%
23:00 +21°C° 0 mm 3 mps 753 mmHg 81%

16 Agosto, Domingo

Tiempo Temperatura Precipitaciones Viento Presión Humedad
00:00 +23°C° 0 mm 2 mps 753 mmHg 78%
01:00 +23°C° 0 mm 2 mps 753 mmHg 75%
02:00 +23°C° 0 mm 1 mps 753 mmHg 74%
03:00 +23°C° 0 mm 1 mps 753 mmHg 74%
04:00 +23°C° 0 mm 1 mps 753 mmHg 73%
05:00 +23°C° 0 mm 1 mps 753 mmHg 72%
06:00 +23°C° 0 mm 1 mps 753 mmHg 71%
07:00 +21°C° 0 mm 0 mps 754 mmHg 70%
08:00 +24°C° 0 mm 1 mps 754 mmHg 65%
09:00 +25°C° 0 mm 1 mps 754 mmHg 60%
10:00 +26°C° 0 mm 2 mps 754 mmHg 55%
11:00 +27°C° 0 mm 3 mps 753 mmHg 52%
12:00 +28°C° 0 mm 4 mps 753 mmHg 50%
13:00 +29°C° 0 mm 5 mps 752 mmHg 48%
14:00 +28°C° 0 mm 5 mps 751 mmHg 52%
15:00 +27°C° 0 mm 6 mps 751 mmHg 56%
16:00 +26°C° 0 mm 6 mps 751 mmHg 60%
17:00 +25°C° 0 mm 5 mps 751 mmHg 66%
18:00 +23°C° 0 mm 5 mps 752 mmHg 72%
19:00 +22°C° 0 mm 4 mps 753 mmHg 78%
20:00 +21°C° 0 mm 4 mps 753 mmHg 80%
21:00 +21°C° 0 mm 3 mps 754 mmHg 82%
22:00 +21°C° 0 mm 3 mps 754 mmHg 84%
23:00 +21°C° 0 mm 2 mps 754 mmHg 82%

17 Agosto, Lunes

Tiempo Temperatura Precipitaciones Viento Presión Humedad
00:00 +22°C° 0 mm 1 mps 754 mmHg 80%
01:00 +22°C° 0 mm 1 mps 754 mmHg 78%
02:00 +22°C° 0 mm 1 mps 754 mmHg 77%
03:00 +23°C° 0 mm 1 mps 754 mmHg 76%
04:00 +23°C° 0 mm 1 mps 754 mmHg 75%
05:00 +23°C° 0 mm 1 mps 754 mmHg 75%
06:00 +23°C° 0 mm 2 mps 754 mmHg 74%
07:00 +23°C° 0 mm 2 mps 755 mmHg 74%
08:00 +24°C° 0 mm 2 mps 755 mmHg 66%
09:00 +26°C° 0 mm 2 mps 755 mmHg 59%
10:00 +27°C° 0 mm 2 mps 755 mmHg 52%
11:00 +28°C° 0 mm 3 mps 755 mmHg 50%
12:00 +28°C° 0 mm 4 mps 754 mmHg 49%
13:00 +29°C° 0 mm 5 mps 753 mmHg 47%
14:00 +28°C° 0 mm 5 mps 753 mmHg 50%
15:00 +27°C° 0 mm 5 mps 752 mmHg 52%
16:00 +27°C° 0 mm 6 mps 752 mmHg 55%
17:00 +25°C° 0 mm 5 mps 753 mmHg 61%
18:00 +23°C° 0 mm 5 mps 753 mmHg 67%
19:00 +22°C° 0 mm 4 mps 754 mmHg 73%
20:00 +21°C° 0 mm 4 mps 754 mmHg 76%
21:00 +21°C° 0 mm 4 mps 755 mmHg 80%
22:00 +20°C° 0 mm 4 mps 755 mmHg 83%
23:00 +20°C° 0 mm 3 mps 755 mmHg 82%
Mostrar más